DW2893 Weather Reports


Display with metric or nautical units.
time (UTC)temp
F
wind
direction
speed
MPH
gust
MPH
rain 1hr
in
rain 24hr
in
rain mn
in
humidity
%
barometer
mb
20260905203807 98 147 5.0 9.0 0.00 0.00 0.00 42 1008.5
20260905040306 88 179 5.0 7.0 0.00 0.00 0.00 59 1011.6
20260905035807 88 160 5.0 8.0 0.00 0.00 0.00 58 1011.6
20260905033805 89 132 4.0 9.0 0.00 0.00 0.00 57 1011.5
20260905032805 89 141 5.0 8.0 0.00 0.00 0.00 56 1011.5
20260905031804 89 145 3.0 9.0 0.00 0.00 0.00 56 1011.5
20260905030305 90 151 5.0 9.0 0.00 0.00 0.00 56 1011.3
20260905025805 90 155 5.0 8.0 0.00 0.00 0.00 55 1011.3
20260905025306 90 138 5.0 9.0 0.00 0.00 0.00 55 1011.3
20260905024810 90 134 6.0 8.0 0.00 0.00 0.00 55 1011.3
20260905024306 90 148 3.0 8.0 0.00 0.00 0.00 55 1011.3
20260905022306 90 141 5.0 10.0 0.00 0.00 0.00 54 1010.7
20260905021807 91 147 4.0 9.0 0.00 0.00 0.00 54 1010.7
20260905021306 91 129 5.0 10.0 0.00 0.00 0.00 53 1010.7
20260905020307 91 139 5.0 10.0 0.00 0.00 0.00 52 1010.2
20260905015809 91 137 5.0 8.0 0.00 0.00 0.00 52 1010.2
20260905015306 91 137 5.0 10.0 0.00 0.00 0.00 52 1010.2
20260905014807 91 138 5.0 9.0 0.00 0.00 0.00 53 1010.2
20260905014305 91 139 3.0 12.0 0.00 0.00 0.00 52 1010.2
20260905012807 92 119 5.0 12.0 0.00 0.00 0.00 51 1010.2
20260905012307 92 125 6.0 12.0 0.00 0.00 0.00 50 1010.2
20260905011304 92 132 7.0 12.0 0.00 0.00 0.00 50 1010.2
20260905010806 93 113 6.0 12.0 0.00 0.00 0.00 50 1010.0
20260905004804 93 143 3.0 9.0 0.00 0.00 0.00 49 1009.9
20260905004306 93 140 5.0 12.0 0.00 0.00 0.00 49 1009.9
20260905003805 94 134 6.0 15.0 0.00 0.00 0.00 49 1009.9
20260905003305 94 114 6.0 12.0 0.00 0.00 0.00 49 1009.8
20260905002312 94 101 6.0 10.0 0.00 0.00 0.00 49 1009.7
20260905001810 94 122 6.0 14.0 0.00 0.00 0.00 49 1009.7
20260905001308 94 122 6.0 13.0 0.00 0.00 0.00 49 1009.7
20260905000809 94 119 4.0 13.0 0.00 0.00 0.00 49 1009.7
20260904235810 95 101 6.0 13.0 0.00 0.00 0.00 49 1009.6
20260904235312 95 99 8.0 15.0 0.00 0.00 0.00 48 1009.6
20260904234310 95 106 7.0 12.0 0.00 0.00 0.00 49 1009.6
20260904233811 95 120 7.0 12.0 0.00 0.00 0.00 49 1009.5
20260904232809 95 146 7.0 12.0 0.00 0.00 0.00 49 1009.5
20260904232309 95 100 6.0 12.0 0.00 0.00 0.00 49 1009.5
20260904230808 97 118 7.0 14.0 0.00 0.00 0.00 47 1009.5
20260904225311 97 129 8.0 14.0 0.00 0.00 0.00 47 1009.7
20260904224810 97 158 9.0 14.0 0.00 0.00 0.00 47 1009.7
20260904224309 97 65 6.0 13.0 0.00 0.00 0.00 48 1009.7
20260904223309 97 88 7.0 14.0 0.00 0.00 0.00 46 1009.7
20260904222809 97 116 6.0 14.0 0.00 0.00 0.00 46 1009.6
20260904222309 98 117 9.0 14.0 0.00 0.00 0.00 46 1009.6
20260904221308 98 103 6.0 12.0 0.00 0.00 0.00 46 1009.6
20260904220308 98 117 9.0 18.0 0.00 0.00 0.00 45 1009.6
20260904215810 98 119 7.0 17.0 0.00 0.00 0.00 46 1009.6
20260904215308 97 130 5.0 13.0 0.00 0.00 0.00 46 1009.8
20260904214810 97 91 7.0 13.0 0.00 0.00 0.00 45 1009.8
20260904214311 98 82 9.0 15.0 0.00 0.00 0.00 45 1009.8
20260904213809 97 19 9.0 15.0 0.00 0.00 0.00 46 1009.9
20260904213310 97 135 5.0 12.0 0.00 0.00 0.00 46 1009.9
20260904212809 97 127 6.0 12.0 0.00 0.00 0.00 46 1010.0
20260904212310 97 122 7.0 10.0 0.00 0.00 0.00 47 1010.2
20260904211308 97 150 6.0 12.0 0.00 0.00 0.00 47 1010.2
20260904210808 97 139 5.0 9.0 0.00 0.00 0.00 46 1010.4
20260904205807 96 246 5.0 10.0 0.00 0.00 0.00 48 1010.5
20260904205307 96 186 6.0 12.0 0.00 0.00 0.00 48 1010.5